FW3613 Weather Reports


Display with metric or nautical units.
time (UTC)temp
F
wind
direction
speed
MPH
gust
MPH
rain 1hr
in
rain 24hr
in
rain mn
in
humidity
%
barometer
mb
20260508052005 58 79 0.0 0.0 0.00 0.00 0.00 52 1013.0
20260508051504 58 79 0.0 1.0 0.00 0.00 0.00 51 1012.9
20260508051004 59 79 0.0 1.0 0.00 0.00 0.00 50 1012.8
20260508050504 59 79 0.0 1.0 0.00 0.00 0.00 49 1012.8
20260508050006 60 103 0.0 1.0 0.00 0.00 0.00 49 1012.8
20260508045503 60 103 0.0 1.0 0.00 0.00 0.00 46 1012.7
20260508045003 60 103 0.0 1.0 0.00 0.00 0.00 46 1012.7
20260508044505 61 103 0.0 1.0 0.00 0.00 0.00 47 1012.8
20260508044004 61 70 0.0 1.0 0.00 0.00 0.00 46 1012.8
20260508043503 61 70 0.0 1.0 0.00 0.00 0.00 46 1012.8
20260508043003 61 69 0.0 0.0 0.00 0.00 0.00 49 1012.8
20260508042503 62 70 0.0 0.0 0.00 0.00 0.00 46 1012.7
20260508042004 62 69 0.0 0.0 0.00 0.00 0.00 44 1012.7
20260508041504 62 69 0.0 2.0 0.00 0.00 0.00 43 1012.6
20260508041002 62 69 0.0 2.0 0.00 0.00 0.00 43 1012.6
20260508040502 62 92 0.0 0.0 0.00 0.00 0.00 44 1012.6
20260508040002 62 91 0.0 0.0 0.00 0.00 0.00 46 1012.5
20260508035501 63 91 0.0 0.0 0.00 0.00 0.00 43 1012.4
20260508035001 63 92 0.0 0.0 0.00 0.00 0.00 43 1012.3
20260508034506 64 62 0.0 0.0 0.00 0.00 0.00 43 1012.3
20260508034000 64 63 0.0 0.0 0.00 0.00 0.00 41 1012.2
20260508033502 64 62 0.0 0.0 0.00 0.00 0.00 40 1012.1
20260508033100 64 62 0.0 1.0 0.00 0.00 0.00 40 1012.0
20260508032605 65 63 0.0 2.0 0.00 0.00 0.00 39 1012.0
20260508032101 65 62 0.0 2.0 0.00 0.00 0.00 39 1012.0
20260508031600 65 89 0.0 1.0 0.00 0.00 0.00 42 1011.9
20260508031104 66 91 0.0 1.0 0.00 0.00 0.00 41 1011.8
20260508030559 67 177 0.0 0.0 0.00 0.00 0.00 39 1011.7
20260508030103 68 177 0.0 0.0 0.00 0.00 0.00 38 1011.7
20260508025558 68 204 0.0 1.0 0.00 0.00 0.00 35 1011.7
20260508025058 69 204 0.0 1.0 0.00 0.00 0.00 34 1011.7
20260508024601 70 218 0.0 1.0 0.00 0.00 0.00 34 1011.5
20260508024102 71 218 0.0 0.0 0.00 0.00 0.00 32 1011.5
20260508023558 72 221 0.0 1.0 0.00 0.00 0.00 31 1011.4
20260508023057 72 219 0.0 1.0 0.00 0.00 0.00 29 1011.4
20260508022559 73 219 0.0 1.0 0.00 0.00 0.00 29 1011.4
20260508022056 73 221 0.0 1.0 0.00 0.00 0.00 26 1011.4
20260508021559 74 219 0.0 1.0 0.00 0.00 0.00 27 1011.4
20260508021055 74 221 0.0 1.0 0.00 0.00 0.00 26 1011.4
20260508020559 74 288 0.0 4.0 0.00 0.00 0.00 25 1011.4
20260508020056 75 288 1.0 5.0 0.00 0.00 0.00 24 1011.4
20260508015555 75 298 2.0 5.0 0.00 0.00 0.00 24 1011.3
20260508015055 75 297 1.0 4.0 0.00 0.00 0.00 24 1011.3
20260508014555 76 301 1.0 8.0 0.00 0.00 0.00 24 1011.3
20260508014055 76 299 3.0 8.0 0.00 0.00 0.00 22 1011.4
20260508013556 76 279 2.0 8.0 0.00 0.00 0.00 22 1011.4
20260508013103 76 300 1.0 8.0 0.00 0.00 0.00 23 1011.4
20260508012553 76 291 2.0 7.0 0.00 0.00 0.00 23 1011.4
20260508012053 77 285 3.0 8.0 0.00 0.00 0.00 23 1011.4
20260508011553 77 288 3.0 8.0 0.00 0.00 0.00 23 1011.4
20260508011052 77 313 2.0 6.0 0.00 0.00 0.00 23 1011.4
20260508010552 77 291 2.0 7.0 0.00 0.00 0.00 24 1011.4
20260508010052 77 311 3.0 12.0 0.00 0.00 0.00 23 1011.4
20260508005550 78 288 4.0 12.0 0.00 0.00 0.00 23 1011.5
20260508005053 77 300 2.0 10.0 0.00 0.00 0.00 24 1011.5
20260508004553 77 288 3.0 10.0 0.00 0.00 0.00 24 1011.5
20260508004050 77 284 1.0 8.0 0.00 0.00 0.00 23 1011.6
20260508003549 77 288 1.0 8.0 0.00 0.00 0.00 23 1011.7
20260508003047 78 290 2.0 8.0 0.00 0.00 0.00 23 1011.7
20260508002548 77 291 1.0 8.0 0.00 0.00 0.00 24 1011.8
20260508002047 77 293 3.0 10.0 0.00 0.00 0.00 23 1011.8
20260508001548 77 311 3.0 10.0 0.00 0.00 0.00 24 1011.8
20260508001046 78 279 3.0 9.0 0.00 0.00 0.00 24 1011.8
20260508000547 78 302 2.0 9.0 0.00 0.00 0.00 24 1011.8
20260508000047 78 290 1.0 7.0 0.00 0.00 0.00 24 1011.9
20260507235545 78 294 1.0 8.0 0.00 0.00 0.00 23 1011.9
20260507235047 79 294 4.0 8.0 0.00 0.00 0.00 23 1011.9
20260507234547 79 301 3.0 7.0 0.00 0.00 0.00 24 1011.9
20260507234044 79 250 2.0 7.0 0.00 0.00 0.00 24 1011.8
20260507233544 78 285 3.0 9.0 0.00 0.00 0.00 25 1012.0
20260507233043 78 305 3.0 10.0 0.00 0.00 0.00 25 1012.0
20260507232547 78 290 3.0 10.0 0.00 0.00 0.00 25 1012.0
20260507232042 78 267 2.0 16.0 0.00 0.00 0.00 24 1012.0
20260507231543 78 314 3.0 16.0 0.00 0.00 0.00 23 1012.2
20260507231043 79 294 2.0 9.0 0.00 0.00 0.00 25 1012.2
20260507230543 78 297 4.0 9.0 0.00 0.00 0.00 25 1012.1
20260507230041 78 291 3.0 10.0 0.00 0.00 0.00 25 1012.1
20260507225541 78 266 1.0 10.0 0.00 0.00 0.00 26 1012.1
20260507225040 78 272 1.0 8.0 0.00 0.00 0.00 26 1012.2
20260507224540 78 298 4.0 9.0 0.00 0.00 0.00 26 1012.3
20260507224038 78 303 4.0 13.0 0.00 0.00 0.00 25 1012.3
20260507223541 78 273 5.0 13.0 0.00 0.00 0.00 26 1012.4
20260507223037 78 301 3.0 9.0 0.00 0.00 0.00 27 1012.4
20260507222539 78 246 2.0 8.0 0.00 0.00 0.00 26 1012.5
20260507222036 78 326 4.0 10.0 0.00 0.00 0.00 25 1012.6
20260507221535 78 290 4.0 10.0 0.00 0.00 0.00 25 1012.7
20260507221035 78 266 1.0 9.0 0.00 0.00 0.00 26 1012.7
20260507220534 78 298 4.0 9.0 0.00 0.00 0.00 26 1012.8
20260507220034 78 291 2.0 6.0 0.00 0.00 0.00 26 1012.9
20260507215533 78 291 2.0 11.0 0.00 0.00 0.00 26 1012.9
20260507215031 77 293 4.0 11.0 0.00 0.00 0.00 26 1013.0
20260507214532 78 311 5.0 10.0 0.00 0.00 0.00 25 1013.1
20260507214031 78 285 3.0 11.0 0.00 0.00 0.00 25 1013.0
20260507213529 78 285 4.0 11.0 0.00 0.00 0.00 26 1013.2
20260507213029 78 310 2.0 9.0 0.00 0.00 0.00 26 1013.2
20260507212526 77 303 3.0 10.0 0.00 0.00 0.00 26 1013.2
20260507212025 77 279 2.0 10.0 0.00 0.00 0.00 26 1013.4
20260507211525 77 283 4.0 10.0 0.00 0.00 0.00 26 1013.5
20260507211024 77 288 3.0 11.0 0.00 0.00 0.00 26 1013.5
20260507210523 76 287 5.0 11.0 0.00 0.00 0.00 26 1013.5
20260507210023 76 290 2.0 11.0 0.00 0.00 0.00 26 1013.5
20260507205523 76 294 4.0 12.0 0.00 0.00 0.00 27 1013.5
20260507205022 77 285 5.0 12.0 0.00 0.00 0.00 26 1013.7
20260507204522 76 301 2.0 5.0 0.00 0.00 0.00 27 1013.7
20260507204023 76 285 2.0 10.0 0.00 0.00 0.00 26 1013.7
20260507203522 76 294 5.0 10.0 0.00 0.00 0.00 26 1013.7
20260507203023 76 300 4.0 11.0 0.00 0.00 0.00 26 1013.9
20260507202521 76 287 2.0 11.0 0.00 0.00 0.00 26 1013.8
20260507202020 76 304 2.0 6.0 0.00 0.00 0.00 27 1013.9
20260507201521 76 294 1.0 4.0 0.00 0.00 0.00 27 1013.9
20260507201020 76 310 2.0 4.0 0.00 0.00 0.00 27 1014.0
20260507200520 76 297 1.0 4.0 0.00 0.00 0.00 26 1014.0
20260507200019 76 288 2.0 5.0 0.00 0.00 0.00 26 1014.1
20260507195517 75 129 1.0 7.0 0.00 0.00 0.00 25 1014.1
20260507195017 75 280 1.0 7.0 0.00 0.00 0.00 25 1014.1
20260507194521 75 280 0.0 6.0 0.00 0.00 0.00 26 1014.1
20260507194015 74 269 1.0 6.0 0.00 0.00 0.00 24 1014.3
20260507193515 74 270 0.0 6.0 0.00 0.00 0.00 24 1014.3
20260507193019 74 291 2.0 6.0 0.00 0.00 0.00 27 1014.4
20260507192513 73 291 3.0 6.0 0.00 0.00 0.00 25 1014.4
20260507192011 73 328 1.0 8.0 0.00 0.00 0.00 27 1014.6
20260507191511 72 307 3.0 8.0 0.00 0.00 0.00 27 1014.7
20260507191010 72 290 3.0 8.0 0.00 0.00 0.00 29 1014.7
20260507190509 72 270 3.0 10.0 0.00 0.00 0.00 30 1014.9
20260507190010 71 300 5.0 10.0 0.00 0.00 0.00 31 1014.9
20260507185506 71 274 2.0 9.0 0.00 0.00 0.00 32 1014.9
20260507185006 71 291 2.0 6.0 0.00 0.00 0.00 32 1014.9
20260507184507 71 293 1.0 5.0 0.00 0.00 0.00 32 1014.9
20260507184005 71 306 1.0 6.0 0.00 0.00 0.00 32 1015.0
20260507183503 70 298 1.0 7.0 0.00 0.00 0.00 33 1015.0
20260507183003 70 290 2.0 7.0 0.00 0.00 0.00 33 1015.1
20260507182502 70 311 2.0 8.0 0.00 0.00 0.00 35 1015.1
20260507182002 69 291 2.0 8.0 0.00 0.00 0.00 34 1015.2
20260507181600 69 293 3.0 8.0 0.00 0.00 0.00 33 1015.3
20260507181100 69 262 4.0 10.0 0.00 0.00 0.00 34 1015.4
20260507180600 69 304 2.0 10.0 0.00 0.00 0.00 36 1015.4
20260507175558 69 243 1.0 5.0 0.00 0.00 0.00 35 1015.4
20260507175100 69 111 1.0 8.0 0.00 0.00 0.00 35 1015.4
20260507174557 68 253 3.0 8.0 0.00 0.00 0.00 34 1015.5
20260507174058 69 288 2.0 6.0 0.00 0.00 0.00 35 1015.4
20260507173555 68 288 2.0 8.0 0.00 0.00 0.00 36 1015.4
20260507173057 68 294 3.0 8.0 0.00 0.00 0.00 35 1015.5
20260507172553 68 293 2.0 8.0 0.00 0.00 0.00 35 1015.5
20260507172054 68 296 3.0 8.0 0.00 0.00 0.00 36 1015.6
20260507171553 68 304 1.0 8.0 0.00 0.00 0.00 38 1015.6
20260507171052 67 297 2.0 7.0 0.00 0.00 0.00 38 1015.6
20260507170649 67 291 2.0 7.0 0.00 0.00 0.00 37 1015.6
20260507170051 67 271 3.0 6.0 0.00 0.00 0.00 37 1015.6
20260507165549 67 294 3.0 6.0 0.00 0.00 0.00 38 1015.6
20260507165049 67 289 2.0 7.0 0.00 0.00 0.00 39 1015.7
20260507164649 67 303 2.0 7.0 0.00 0.00 0.00 40 1015.7
20260507164048 66 316 3.0 6.0 0.00 0.00 0.00 41 1015.7
20260507163547 66 233 1.0 5.0 0.00 0.00 0.00 42 1015.7
20260507163044 66 291 1.0 4.0 0.00 0.00 0.00 43 1015.7
20260507162542 65 273 1.0 4.0 0.00 0.00 0.00 44 1015.7
20260507162042 65 257 0.0 4.0 0.00 0.00 0.00 46 1015.7
20260507161540 64 285 1.0 4.0 0.00 0.00 0.00 46 1015.8
20260507161038 64 298 0.0 3.0 0.00 0.00 0.00 47 1015.8
20260507160537 64 318 0.0 2.0 0.00 0.00 0.00 49 1015.8
20260507160036 63 304 0.0 2.0 0.00 0.00 0.00 49 1015.9
20260507155538 62 115 0.0 2.0 0.00 0.00 0.00 53 1015.9
20260507155034 62 282 0.0 2.0 0.00 0.00 0.00 53 1015.8
20260507154536 61 282 0.0 2.0 0.00 0.00 0.00 54 1015.9
20260507154034 61 129 0.0 2.0 0.00 0.00 0.00 56 1016.0
20260507153532 60 122 0.0 2.0 0.00 0.00 0.00 56 1016.2
20260507153032 60 112 0.0 2.0 0.00 0.00 0.00 59 1016.2
20260507152534 60 120 0.0 1.0 0.00 0.00 0.00 59 1016.2
20260507152032 59 120 0.0 1.0 0.00 0.00 0.00 61 1016.2
20260507151532 59 117 0.0 1.0 0.00 0.00 0.00 62 1016.2
20260507151033 59 217 0.0 1.0 0.00 0.00 0.00 62 1016.2
20260507150531 58 231 0.0 1.0 0.00 0.00 0.00 64 1016.2
20260507150034 58 231 0.0 1.0 0.00 0.00 0.00 65 1016.3
20260507145532 57 277 0.0 2.0 0.00 0.00 0.00 66 1016.2
20260507145033 57 120 0.0 2.0 0.00 0.00 0.00 68 1016.3
20260507144531 56 120 0.0 1.0 0.00 0.00 0.00 68 1016.2
20260507144031 56 117 0.0 3.0 0.00 0.00 0.00 69 1016.2
20260507143530 55 131 1.0 3.0 0.00 0.00 0.00 70 1016.2
20260507143053 55 123 0.0 1.0 0.00 0.00 0.00 71 1016.2
20260507142530 54 143 0.0 1.0 0.00 0.00 0.00 72 1016.1
20260507142028 54 127 0.0 1.0 0.00 0.00 0.00 72 1016.1
20260507141538 53 129 0.0 1.0 0.00 0.00 0.00 74 1016.1
20260507141028 53 143 0.0 1.0 0.00 0.00 0.00 76 1016.0
20260507140527 52 143 0.0 1.0 0.00 0.00 0.00 77 1015.9
20260507140026 52 143 0.0 0.0 0.00 0.00 0.00 77 1015.8
20260507135526 51 146 0.0 0.0 0.00 0.00 0.00 78 1015.7
20260507135026 51 148 0.0 0.0 0.00 0.00 0.00 79 1015.7
20260507134526 50 150 0.0 0.0 0.00 0.00 0.00 80 1015.7
20260507134029 50 153 0.0 0.0 0.00 0.00 0.00 81 1015.7
20260507133528 49 153 0.0 0.0 0.00 0.00 0.00 81 1015.7
20260507133025 49 153 0.0 0.0 0.00 0.00 0.00 82 1015.6
20260507132524 49 153 0.0 0.0 0.00 0.00 0.00 82 1015.6
20260507132023 49 153 0.0 0.0 0.00 0.00 0.00 82 1015.6
20260507131523 49 153 0.0 0.0 0.00 0.00 0.00 82 1015.5
20260507131026 49 153 0.0 0.0 0.00 0.00 0.00 82 1015.5
20260507130522 49 153 0.0 0.0 0.00 0.00 0.00 81 1015.3
20260507130036 49 153 0.0 0.0 0.00 0.00 0.00 81 1015.3
20260507125522 49 153 0.0 0.0 0.00 0.00 0.00 81 1015.3
20260507125023 49 153 0.0 0.0 0.00 0.00 0.00 81 1015.3
20260507124520 49 153 0.0 0.0 0.00 0.00 0.00 81 1015.2
20260507124020 49 153 0.0 0.0 0.00 0.00 0.00 82 1015.2
20260507123519 49 153 0.0 0.0 0.00 0.00 0.00 82 1015.0
20260507123018 49 153 0.0 0.0 0.00 0.00 0.00 83 1015.0
20260507122517 49 153 0.0 0.0 0.00 0.00 0.00 83 1015.1
20260507122017 49 153 0.0 0.0 0.00 0.00 0.00 82 1015.0
20260507121517 49 153 0.0 0.0 0.00 0.00 0.00 82 1015.0
20260507121016 49 153 0.0 0.0 0.00 0.00 0.00 82 1014.9
20260507120515 49 153 0.0 0.0 0.00 0.00 0.00 82 1014.9
20260507120015 49 153 0.0 0.0 0.00 0.00 0.00 82 1014.9
20260507115515 50 178 0.0 0.0 0.00 0.00 0.00 82 1014.9
20260507115014 50 177 0.0 0.0 0.00 0.00 0.00 83 1014.9
20260507114520 50 177 0.0 0.0 0.00 0.00 0.00 83 1015.0
20260507114014 49 177 0.0 0.0 0.00 0.00 0.00 83 1015.0
20260507113518 49 177 0.0 0.0 0.00 0.00 0.00 83 1015.0
20260507113013 49 177 0.0 0.0 0.00 0.00 0.00 83 1015.0
20260507112514 49 178 0.0 0.0 0.00 0.00 0.00 82 1015.0
20260507112011 50 177 0.0 0.0 0.00 0.00 0.00 81 1014.9
20260507111510 50 177 0.0 0.0 0.00 0.00 0.00 81 1015.0
20260507111010 50 177 0.0 0.0 0.00 0.00 0.00 82 1015.0
20260507110510 50 177 0.0 0.0 0.00 0.00 0.00 82 1014.9
20260507110009 50 177 0.0 0.0 0.00 0.00 0.00 82 1014.8
20260507105507 50 177 0.0 0.0 0.00 0.00 0.00 81 1014.8
20260507105008 50 177 0.0 0.0 0.00 0.00 0.00 80 1014.7
20260507104506 50 177 0.0 0.0 0.00 0.00 0.00 80 1014.7
20260507104005 51 177 0.0 0.0 0.00 0.00 0.00 80 1014.8
20260507103503 51 177 0.0 0.0 0.00 0.00 0.00 79 1014.7
20260507103002 51 177 0.0 0.0 0.00 0.00 0.00 79 1014.7
20260507102502 51 178 0.0 0.0 0.00 0.00 0.00 79 1014.6
20260507102002 51 177 0.0 0.0 0.00 0.00 0.00 79 1014.6
20260507101501 52 177 0.0 0.0 0.00 0.00 0.00 79 1014.6
20260507101102 52 177 0.0 0.0 0.00 0.00 0.00 79 1014.6
20260507100558 52 177 0.0 0.0 0.00 0.00 0.00 78 1014.5
20260507100100 52 177 0.0 0.0 0.00 0.00 0.00 78 1014.5
20260507095556 53 180 0.0 0.0 0.00 0.00 0.00 78 1014.5
20260507095055 53 179 0.0 0.0 0.00 0.00 0.00 77 1014.5
20260507094554 53 180 0.0 0.0 0.00 0.00 0.00 77 1014.5
20260507094053 53 179 0.0 0.0 0.00 0.00 0.00 77 1014.5
20260507093553 53 180 0.0 0.0 0.00 0.00 0.00 77 1014.4
20260507093052 53 179 0.0 0.0 0.00 0.00 0.00 77 1014.4
20260507092551 54 180 0.0 0.0 0.00 0.00 0.00 76 1014.5
20260507092049 54 179 0.0 0.0 0.00 0.00 0.00 76 1014.4
20260507091550 54 180 0.0 0.0 0.00 0.00 0.00 76 1014.4
20260507091049 54 178 0.0 0.0 0.00 0.00 0.00 76 1014.4
20260507090548 54 179 0.0 0.0 0.00 0.00 0.00 76 1014.4
20260507090056 54 179 0.0 0.0 0.00 0.00 0.00 74 1014.4
20260507085545 55 180 0.0 0.0 0.00 0.00 0.00 73 1014.4
20260507085044 55 179 0.0 0.0 0.00 0.00 0.00 73 1014.4
20260507084551 55 179 0.0 0.0 0.00 0.00 0.00 72 1014.3
20260507084042 56 201 0.0 0.0 0.00 0.00 0.00 72 1014.1
20260507083542 56 201 0.0 0.0 0.00 0.00 0.00 71 1014.1
20260507083041 56 201 0.0 0.0 0.00 0.00 0.00 71 1014.0
20260507082538 56 201 0.0 0.0 0.00 0.00 0.00 70 1014.0
20260507082037 57 212 0.0 0.0 0.00 0.00 0.00 70 1014.1
20260507081536 57 212 0.0 0.0 0.00 0.00 0.00 69 1014.0
20260507081035 57 212 0.0 0.0 0.00 0.00 0.00 68 1014.0
20260507080535 57 212 0.0 0.0 0.00 0.00 0.00 67 1013.9
20260507080033 58 214 0.0 0.0 0.00 0.00 0.00 67 1013.9
20260507075531 58 214 0.0 0.0 0.00 0.00 0.00 66 1013.9
20260507075030 58 214 0.0 0.0 0.00 0.00 0.00 66 1013.9
20260507074529 59 214 0.0 0.0 0.00 0.00 0.00 64 1013.9
20260507074027 59 214 0.0 0.0 0.00 0.00 0.00 64 1013.7
20260507073528 59 214 0.0 0.0 0.00 0.00 0.00 63 1013.8
20260507073030 59 214 0.0 0.0 0.00 0.00 0.00 64 1013.7
20260507072528 59 214 0.0 0.0 0.00 0.00 0.00 64 1013.7
20260507072023 60 214 0.0 0.0 0.00 0.00 0.00 64 1013.9
20260507071528 60 214 0.0 1.0 0.00 0.00 0.00 62 1013.9
20260507071027 60 214 0.0 1.0 0.00 0.00 0.00 62 1013.8
20260507070521 61 214 0.0 0.0 0.00 0.00 0.00 62 1013.8
20260507070019 61 214 0.0 0.0 0.00 0.00 0.00 61 1013.9
20260507065519 61 214 0.0 0.0 0.00 0.00 0.00 61 1013.9
20260507065018 62 214 0.0 1.0 0.00 0.00 0.00 60 1013.9
20260507064528 62 214 0.0 1.0 0.00 0.00 0.00 58 1013.9
20260507064018 62 214 0.0 1.0 0.00 0.00 0.00 58 1013.7
20260507063516 62 214 0.0 1.0 0.00 0.00 0.00 58 1013.7
20260507063016 62 214 0.0 0.0 0.00 0.00 0.00 58 1013.7
20260507062521 62 214 0.0 0.0 0.00 0.00 0.00 59 1013.6
20260507062013 62 214 0.0 0.0 0.00 0.00 0.00 62 1013.7
20260507061515 62 214 0.0 0.0 0.00 0.00 0.00 62 1013.7
20260507061012 62 214 0.0 0.0 0.00 0.00 0.00 61 1013.6
20260507060511 62 214 0.0 0.0 0.00 0.00 0.00 60 1013.7
20260507060011 62 214 0.0 0.0 0.00 0.00 0.00 61 1013.6
20260507055511 62 217 0.0 0.0 0.00 0.00 0.00 61 1013.7
20260507055010 63 217 0.0 0.0 0.00 0.00 0.00 63 1013.7
20260507054509 64 217 0.0 0.0 0.00 0.00 0.00 60 1013.6
20260507054009 64 217 0.0 0.0 0.00 0.00 0.00 57 1013.6
20260507053509 64 217 0.0 0.0 0.00 0.00 0.00 56 1013.6
20260507053111 64 217 0.0 0.0 0.00 0.00 0.00 57 1013.6
20260507052507 64 217 0.0 0.0 0.00 0.00 0.00 56 1013.5